Bryce Canyon, UT

12:43 PM MDT on September 26, 2017 (GMT -0600)
Bryce Canyon

Weather History for KBCE - October, 2012

Change the Weather History Date:

Monday, October 1, 2012

  Actual Average Record
Temperature  
Mean Temperature 50 °F -  
Max Temperature 75 °F 66 °F 79 °F (1980)
Min Temperature 28 °F 32 °F 17 °F (1977)
Degree Days  
Heating Degree Days 14    
Moisture  
Dew Point 25 °F    
Average Humidity 40    
Maximum Humidity 81    
Minimum Humidity 15    
Precipitation  
Precipitation 0.00 in - - ()
Sea Level Pressure  
Sea Level Pressure 30.14 in    
Wind  
Wind Speed 7 mph (West)    
Max Wind Speed 12 mph    
Max Gust Speed -    
Visibility 10 miles    
Events      
Averages and records for this station are not official NWS values.
T = Trace of Precipitation, MM = Missing Value Source: NWS Daily Summary

Daily Weather History Graph

Daily Weather History Graph

Search for Another Location

Airport or City:

Trip Planner

Search our weather history database for the weather conditions in past years. The results will help you decide how hot, cold, wet, or windy it might be!

Date:

Astronomy

Oct. 01, 2012 Rise Set
Actual Time 7:24 AM MDT 7:10 PM MDT
Civil Twilight 6:58 AM MDT 7:36 PM MDT
Nautical Twilight 6:28 AM MDT 8:07 PM MDT
Astronomical Twilight 5:57 AM MDT 8:37 PM MDT
Moon 7:53 PM MDT (10/1) 8:55 AM MDT (10/1)
Length of Visible Light 12h 38m
Length of Day
11h 46m
Full, 97% of the Moon is Illuminated
Oct 1
Full
Oct 8
Last Quarter
Oct 15
New
Oct 21
First Quarter
Oct 29
Full

Hourly Weather History & Observations

Time (MDT) Temp. Windchill Dew Point Humidity Pressure Visibility Wind Dir Wind Speed Gust Speed Precip Events Conditions
12:53 AM 35.1 °F 29.3 °F 26.1 °F 70% 30.15 in 10.0 mi WSW 6.9 mph - N/A   Clear
1:53 AM 37.0 °F 33.3 °F 26.1 °F 65% 30.15 in 10.0 mi SW 4.6 mph - N/A   Clear
3:53 AM 37.9 °F 30.5 °F 26.1 °F 62% 30.12 in 10.0 mi West 11.5 mph - N/A   Clear
4:53 AM 33.1 °F 27.7 °F 24.1 °F 70% 30.15 in 10.0 mi SSW 5.8 mph - N/A   Clear
6:53 AM 28.0 °F 22.8 °F 23.0 °F 81% 30.23 in 10.0 mi SSW 4.6 mph - N/A   Clear
7:53 AM 36.0 °F 29.6 °F 27.0 °F 70% 30.25 in 10.0 mi West 8.1 mph - N/A   Clear
8:53 AM 48.0 °F - 28.9 °F 48% 30.22 in 10.0 mi West 4.6 mph - N/A   Clear
9:53 AM 57.9 °F - 28.0 °F 32% 30.21 in 10.0 mi NNE 5.8 mph - N/A   Clear
10:53 AM 64.0 °F - 27.0 °F 25% 30.18 in 10.0 mi NNE 10.4 mph - N/A   Clear
11:53 AM 66.9 °F - 25.0 °F 21% 30.17 in 10.0 mi East 4.6 mph - N/A   Clear
12:53 PM 70.0 °F - 23.0 °F 17% 30.16 in 10.0 mi Variable 3.5 mph - N/A   Clear
1:53 PM 71.1 °F - 23.0 °F 16% 30.13 in 10.0 mi Variable 4.6 mph - N/A   Clear
2:53 PM 72.0 °F - 23.0 °F 16% 30.09 in 10.0 mi ESE 3.5 mph - N/A   Clear
4:53 PM 73.9 °F - 23.0 °F 15% 30.07 in 10.0 mi West 9.2 mph - N/A   Clear
5:53 PM 72.0 °F - 24.1 °F 17% 30.05 in 10.0 mi NW 11.5 mph - N/A   Clear
6:53 PM 66.9 °F - 24.1 °F 20% 30.10 in 10.0 mi WNW 11.5 mph - N/A   Clear
7:53 PM 61.0 °F - 24.1 °F 24% 30.10 in 10.0 mi WNW 10.4 mph - N/A   Clear
8:53 PM 55.0 °F - 24.1 °F 30% 30.10 in 10.0 mi ENE 3.5 mph - N/A   Clear
9:53 PM 46.9 °F - 25.0 °F 42% 30.09 in 10.0 mi West 4.6 mph - N/A   Clear
10:53 PM 44.1 °F - 25.0 °F 47% 30.09 in 10.0 mi Calm Calm - N/A   Clear
11:53 PM 39.9 °F 35.8 °F 27.0 °F 60% 30.09 in 10.0 mi West 5.8 mph - N/A   Clear